Saint Bonnet de Bellac- Haute Vienne - France
Donnes mto: mardi, 21/08/2012
Date Horaire Temp. E. Hum. E. P.atmo. Pluie Vent Direction Direction Ensoleilleme Solaire P. de rose Temp au vent Rafales
21/08/2012 00:00 23,8 C 70 % 1019,8 hPa 0,0 mm 0,0 km/h (0 Bft) N-NO 337 0 min 0 W/m 18,0 C 23,8 C 0,0 km/h (0 Bft)
21/08/2012 00:10 23,6 C 70 % 1019,6 hPa 0,0 mm 0,4 km/h (0 Bft) N 360 0 min 0 W/m 17,8 C 23,6 C 4,3 km/h (1 Bft)
21/08/2012 00:20 23,5 C 70 % 1019,5 hPa 0,0 mm 0,0 km/h (0 Bft) N 360 0 min 0 W/m 17,7 C 23,5 C 0,0 km/h (0 Bft)
21/08/2012 00:30 23,4 C 70 % 1019,3 hPa 0,0 mm 0,0 km/h (0 Bft) N 360 0 min 0 W/m 17,6 C 23,4 C 0,0 km/h (0 Bft)
21/08/2012 00:40 23,2 C 71 % 1019,2 hPa 0,0 mm 0,0 km/h (0 Bft) N 360 0 min 0 W/m 17,6 C 23,2 C 0,0 km/h (0 Bft)
21/08/2012 00:50 22,9 C 71 % 1019,1 hPa 0,0 mm 0,0 km/h (0 Bft) N 360 0 min 0 W/m 17,4 C 22,9 C 0,0 km/h (0 Bft)
21/08/2012 01:00 22,8 C 71 % 1019,1 hPa 0,0 mm 0,0 km/h (0 Bft) N 360 0 min 0 W/m 17,3 C 22,8 C 0,0 km/h (0 Bft)
21/08/2012 01:10 22,6 C 71 % 1019,1 hPa 0,0 mm 0,0 km/h (0 Bft) NE 45 0 min 0 W/m 17,1 C 22,6 C 0,0 km/h (0 Bft)
21/08/2012 01:20 22,6 C 71 % 1019,0 hPa 0,0 mm 0,0 km/h (0 Bft) NE 45 0 min 0 W/m 17,1 C 22,6 C 0,0 km/h (0 Bft)
21/08/2012 01:30 22,4 C 71 % 1019,0 hPa 0,0 mm 0,0 km/h (0 Bft) NE 45 0 min 0 W/m 16,9 C 22,4 C 0,0 km/h (0 Bft)
21/08/2012 01:40 22,3 C 71 % 1019,0 hPa 0,0 mm 0,0 km/h (0 Bft) NE 45 0 min 0 W/m 16,8 C 22,3 C 0,0 km/h (0 Bft)
21/08/2012 01:50 22,1 C 71 % 1018,9 hPa 0,0 mm 0,0 km/h (0 Bft) NE 45 0 min 0 W/m 16,6 C 22,1 C 0,0 km/h (0 Bft)
21/08/2012 02:00 21,8 C 72 % 1018,9 hPa 0,0 mm 0,0 km/h (0 Bft) NE 45 0 min 0 W/m 16,5 C 21,8 C 0,0 km/h (0 Bft)
21/08/2012 02:10 21,6 C 72 % 1018,8 hPa 0,0 mm 0,0 km/h (0 Bft) NE 45 0 min 0 W/m 16,3 C 21,6 C 0,0 km/h (0 Bft)
21/08/2012 02:20 21,4 C 73 % 1018,8 hPa 0,0 mm 0,0 km/h (0 Bft) NE 45 0 min 0 W/m 16,4 C 21,4 C 0,0 km/h (0 Bft)
21/08/2012 02:30 21,3 C 73 % 1018,8 hPa 0,0 mm 0,0 km/h (0 Bft) NE 45 0 min 0 W/m 16,3 C 21,3 C 0,0 km/h (0 Bft)
21/08/2012 02:40 21,1 C 74 % 1018,7 hPa 0,0 mm 0,0 km/h (0 Bft) NE 45 0 min 0 W/m 16,3 C 21,1 C 0,0 km/h (0 Bft)
21/08/2012 02:50 20,9 C 75 % 1018,7 hPa 0,0 mm 0,0 km/h (0 Bft) NE 45 0 min 0 W/m 16,3 C 20,9 C 0,0 km/h (0 Bft)
21/08/2012 03:02 20,8 C 75 % 1018,6 hPa 0,0 mm 0,0 km/h (0 Bft) NE 45 0 min 0 W/m 16,2 C 20,8 C 0,0 km/h (0 Bft)
21/08/2012 03:10 20,8 C 76 % 1018,6 hPa 0,0 mm 0,0 km/h (0 Bft) NE 45 0 min 0 W/m 16,4 C 20,8 C 0,0 km/h (0 Bft)
21/08/2012 03:20 20,8 C 76 % 1018,5 hPa 0,0 mm 0,0 km/h (0 Bft) NE 45 0 min 0 W/m 16,4 C 20,8 C 0,0 km/h (0 Bft)
21/08/2012 03:30 20,8 C 76 % 1018,5 hPa 0,0 mm 0,0 km/h (0 Bft) NE 45 0 min 0 W/m 16,4 C 20,8 C 0,0 km/h (0 Bft)
21/08/2012 03:40 20,8 C 77 % 1018,5 hPa 0,0 mm 0,0 km/h (0 Bft) NE 45 0 min 0 W/m 16,6 C 20,8 C 0,0 km/h (0 Bft)
21/08/2012 03:50 20,8 C 77 % 1018,4 hPa 0,0 mm 0,0 km/h (0 Bft) NE 45 0 min 0 W/m 16,6 C 20,8 C 0,0 km/h (0 Bft)
21/08/2012 04:00 20,8 C 77 % 1018,4 hPa 0,0 mm 0,0 km/h (0 Bft) NE 45 0 min 0 W/m 16,6 C 20,8 C 0,0 km/h (0 Bft)
21/08/2012 04:10 20,6 C 77 % 1018,2 hPa 0,0 mm 0,0 km/h (0 Bft) NE 45 0 min 0 W/m 16,4 C 20,6 C 0,0 km/h (0 Bft)
21/08/2012 04:20 20,6 C 77 % 1018,1 hPa 0,0 mm 0,0 km/h (0 Bft) NE 45 0 min 0 W/m 16,4 C 20,6 C 0,0 km/h (0 Bft)
21/08/2012 04:30 20,6 C 78 % 1018,2 hPa 0,0 mm 0,0 km/h (0 Bft) NE 45 0 min 0 W/m 16,6 C 20,6 C 0,0 km/h (0 Bft)
21/08/2012 04:40 20,6 C 78 % 1018,1 hPa 0,0 mm 0,0 km/h (0 Bft) NE 45 0 min 0 W/m 16,6 C 20,6 C 0,0 km/h (0 Bft)
21/08/2012 04:50 20,6 C 78 % 1018,1 hPa 0,0 mm 0,0 km/h (0 Bft) NE 45 0 min 0 W/m 16,6 C 20,6 C 0,0 km/h (0 Bft)
21/08/2012 05:00 20,5 C 78 % 1018,2 hPa 0,0 mm 0,0 km/h (0 Bft) NE 45 0 min 0 W/m 16,5 C 20,5 C 0,0 km/h (0 Bft)
21/08/2012 05:10 20,4 C 78 % 1018,1 hPa 0,0 mm 0,0 km/h (0 Bft) NE 45 0 min 0 W/m 16,4 C 20,4 C 0,0 km/h (0 Bft)
21/08/2012 05:20 20,1 C 78 % 1018,2 hPa 0,0 mm 0,0 km/h (0 Bft) NE 45 0 min 0 W/m 16,1 C 20,1 C 0,0 km/h (0 Bft)
21/08/2012 05:30 19,9 C 78 % 1018,0 hPa 0,0 mm 0,0 km/h (0 Bft) NE 45 0 min 0 W/m 15,9 C 19,9 C 0,0 km/h (0 Bft)
21/08/2012 05:40 19,7 C 79 % 1017,8 hPa 0,0 mm 0,0 km/h (0 Bft) NE 45 0 min 0 W/m 16,0 C 19,7 C 0,0 km/h (0 Bft)
21/08/2012 05:50 19,5 C 80 % 1017,9 hPa 0,0 mm 0,0 km/h (0 Bft) NE 45 0 min 0 W/m 16,0 C 19,5 C 0,0 km/h (0 Bft)
21/08/2012 06:00 19,4 C 80 % 1017,8 hPa 0,0 mm 0,0 km/h (0 Bft) NE 45 0 min 0 W/m 15,9 C 19,4 C 0,0 km/h (0 Bft)
21/08/2012 06:10 19,1 C 80 % 1017,8 hPa 0,0 mm 0,0 km/h (0 Bft) NE 45 0 min 0 W/m 15,6 C 19,1 C 0,0 km/h (0 Bft)
21/08/2012 06:20 18,9 C 81 % 1017,7 hPa 0,0 mm 0,0 km/h (0 Bft) NE 45 0 min 0 W/m 15,6 C 18,9 C 0,0 km/h (0 Bft)
21/08/2012 06:30 18,8 C 82 % 1017,7 hPa 0,0 mm 0,0 km/h (0 Bft) NE 45 0 min 0 W/m 15,7 C 18,8 C 0,0 km/h (0 Bft)
21/08/2012 06:40 18,8 C 84 % 1017,7 hPa 0,0 mm 0,0 km/h (0 Bft) NE 45 0 min 0 W/m 16,0 C 18,8 C 0,0 km/h (0 Bft)
21/08/2012 06:50 18,9 C 84 % 1017,6 hPa 0,0 mm 0,0 km/h (0 Bft) NE 45 0 min 0 W/m 16,1 C 18,9 C 0,0 km/h (0 Bft)
21/08/2012 07:00 18,9 C 84 % 1017,6 hPa 0,0 mm 0,0 km/h (0 Bft) E-NE 67 0 min 0 W/m 16,1 C 18,9 C 0,0 km/h (0 Bft)
21/08/2012 07:10 18,8 C 85 % 1017,6 hPa 0,0 mm 2,2 km/h (1 Bft) E-NE 67 0 min 0 W/m 16,2 C 18,8 C 4,0 km/h (1 Bft)
21/08/2012 07:20 18,8 C 85 % 1017,5 hPa 0,0 mm 0,0 km/h (0 Bft) E 90 0 min 0 W/m 16,2 C 18,8 C 0,0 km/h (0 Bft)
21/08/2012 07:30 18,7 C 85 % 1017,6 hPa 0,0 mm 0,0 km/h (0 Bft) E 90 0 min 0 W/m 16,1 C 18,7 C 0,0 km/h (0 Bft)
21/08/2012 07:40 18,6 C 85 % 1017,7 hPa 0,0 mm 0,0 km/h (0 Bft) E 90 0 min 0 W/m 16,0 C 18,6 C 0,0 km/h (0 Bft)
21/08/2012 07:50 18,7 C 86 % 1017,8 hPa 0,0 mm 0,0 km/h (0 Bft) E 90 0 min 0 W/m 16,3 C 18,7 C 0,0 km/h (0 Bft)
21/08/2012 08:00 18,8 C 86 % 1017,9 hPa 0,0 mm 0,0 km/h (0 Bft) E 90 0 min 0 W/m 16,4 C 18,8 C 0,0 km/h (0 Bft)
21/08/2012 08:10 18,9 C 86 % 1017,7 hPa 0,0 mm 0,0 km/h (0 Bft) E 90 0 min 0 W/m 16,5 C 18,9 C 0,0 km/h (0 Bft)
21/08/2012 08:20 19,3 C 86 % 1017,8 hPa 0,0 mm 0,0 km/h (0 Bft) E 90 0 min 0 W/m 16,9 C 19,3 C 0,0 km/h (0 Bft)
21/08/2012 08:30 19,7 C 86 % 1017,8 hPa 0,0 mm 0,0 km/h (0 Bft) E 90 0 min 0 W/m 17,3 C 19,7 C 0,0 km/h (0 Bft)
21/08/2012 08:40 20,3 C 85 % 1017,8 hPa 0,0 mm 0,0 km/h (0 Bft) E 90 0 min 0 W/m 17,7 C 20,3 C 0,0 km/h (0 Bft)
21/08/2012 08:50 21,1 C 85 % 1017,9 hPa 0,0 mm 0,0 km/h (0 Bft) E 90 0 min 0 W/m 18,5 C 21,1 C 0,0 km/h (0 Bft)
21/08/2012 09:00 21,9 C 83 % 1017,7 hPa 0,0 mm 1,8 km/h (1 Bft) E-NE 67 0 min 0 W/m 18,9 C 21,9 C 3,6 km/h (1 Bft)
21/08/2012 09:10 22,6 C 80 % 1017,8 hPa 0,0 mm 0,0 km/h (0 Bft) E-NE 67 0 min 0 W/m 19,0 C 22,6 C 0,0 km/h (0 Bft)
21/08/2012 09:20 23,2 C 78 % 1017,8 hPa 0,0 mm 0,0 km/h (0 Bft) E-NE 67 0 min 0 W/m 19,1 C 23,2 C 0,0 km/h (0 Bft)
21/08/2012 09:30 23,8 C 76 % 1017,8 hPa 0,0 mm 0,0 km/h (0 Bft) E-NE 67 0 min 0 W/m 19,3 C 23,8 C 0,0 km/h (0 Bft)
21/08/2012 09:40 24,4 C 74 % 1017,7 hPa 0,0 mm 0,0 km/h (0 Bft) E-NE 67 0 min 0 W/m 19,5 C 24,4 C 0,0 km/h (0 Bft)
21/08/2012 09:50 25,1 C 72 % 1017,7 hPa 0,0 mm 0,0 km/h (0 Bft) E-NE 67 0 min 0 W/m 19,7 C 25,1 C 0,0 km/h (0 Bft)
21/08/2012 10:00 25,8 C 70 % 1017,6 hPa 0,0 mm 0,0 km/h (0 Bft) E-NE 67 0 min 0 W/m 19,9 C 25,8 C 0,0 km/h (0 Bft)
21/08/2012 10:10 26,6 C 68 % 1017,6 hPa 0,0 mm 0,0 km/h (0 Bft) E-NE 67 0 min 0 W/m 20,2 C 26,6 C 0,0 km/h (0 Bft)
21/08/2012 10:20 27,4 C 66 % 1017,6 hPa 0,0 mm 0,0 km/h (0 Bft) E-NE 67 0 min 0 W/m 20,5 C 27,4 C 0,0 km/h (0 Bft)
21/08/2012 10:30 28,1 C 65 % 1017,8 hPa 0,0 mm 0,0 km/h (0 Bft) SO 225 0 min 0 W/m 20,9 C 28,1 C 0,0 km/h (0 Bft)
21/08/2012 10:40 28,9 C 63 % 1017,8 hPa 0,0 mm 0,7 km/h (0 Bft) SO 225 0 min 0 W/m 21,1 C 28,9 C 0,7 km/h (0 Bft)
21/08/2012 10:50 29,4 C 60 % 1017,7 hPa 0,0 mm 0,0 km/h (0 Bft) S-SO 202 0 min 0 W/m 20,8 C 29,4 C 0,0 km/h (0 Bft)
21/08/2012 11:00 29,9 C 60 % 1017,6 hPa 0,0 mm 0,7 km/h (0 Bft) S-SO 202 0 min 0 W/m 21,3 C 29,9 C 0,7 km/h (0 Bft)
21/08/2012 11:10 30,2 C 59 % 1017,4 hPa 0,0 mm 1,4 km/h (1 Bft) S 180 0 min 0 W/m 21,3 C 30,2 C 4,0 km/h (1 Bft)
21/08/2012 11:20 31,1 C 57 % 1017,4 hPa 0,0 mm 0,0 km/h (0 Bft) S-SE 157 0 min 0 W/m 21,6 C 31,1 C 0,0 km/h (0 Bft)
21/08/2012 11:30 31,8 C 55 % 1017,5 hPa 0,0 mm 0,0 km/h (0 Bft) E-NE 67 0 min 0 W/m 21,6 C 31,8 C 0,0 km/h (0 Bft)
21/08/2012 11:40 32,5 C 55 % 1017,5 hPa 0,0 mm 0,4 km/h (0 Bft) SE 135 0 min 0 W/m 22,3 C 32,5 C 0,4 km/h (0 Bft)
21/08/2012 11:50 33,0 C 51 % 1017,4 hPa 0,0 mm 2,2 km/h (1 Bft) SO 225 0 min 0 W/m 21,5 C 33,0 C 4,0 km/h (1 Bft)
21/08/2012 12:00 32,9 C 52 % 1017,3 hPa 0,0 mm 1,1 km/h (1 Bft) E-SE 112 0 min 0 W/m 21,7 C 32,9 C 3,6 km/h (1 Bft)
21/08/2012 12:10 33,4 C 52 % 1017,2 hPa 0,0 mm 0,0 km/h (0 Bft) O-SO 247 0 min 0 W/m 22,2 C 33,4 C 3,2 km/h (1 Bft)
21/08/2012 12:20 33,8 C 51 % 1017,1 hPa 0,0 mm 1,4 km/h (1 Bft) NE 45 0 min 0 W/m 22,2 C 33,8 C 3,6 km/h (1 Bft)
21/08/2012 12:30 34,0 C 50 % 1017,1 hPa 0,0 mm 0,0 km/h (0 Bft) O 270 0 min 0 W/m 22,1 C 34,0 C 0,0 km/h (0 Bft)
21/08/2012 12:40 34,1 C 49 % 1017,1 hPa 0,0 mm 1,1 km/h (1 Bft) NO 315 0 min 0 W/m 21,8 C 34,1 C 3,2 km/h (1 Bft)
21/08/2012 12:50 34,6 C 48 % 1017,1 hPa 0,0 mm 2,2 km/h (1 Bft) N 360 0 min 0 W/m 21,9 C 34,6 C 4,3 km/h (1 Bft)
21/08/2012 13:00 34,5 C 46 % 1017,0 hPa 0,0 mm 0,4 km/h (0 Bft) SO 225 0 min 0 W/m 21,2 C 34,5 C 3,2 km/h (1 Bft)
21/08/2012 13:10 34,5 C 47 % 1016,9 hPa 0,0 mm 1,8 km/h (1 Bft) SE 135 0 min 0 W/m 21,5 C 34,5 C 4,0 km/h (1 Bft)
21/08/2012 13:20 34,4 C 46 % 1016,9 hPa 0,0 mm 0,7 km/h (0 Bft) S 180 0 min 0 W/m 21,1 C 34,4 C 4,0 km/h (1 Bft)
21/08/2012 13:30 34,4 C 44 % 1016,9 hPa 0,0 mm 1,8 km/h (1 Bft) S-SO 202 0 min 0 W/m 20,3 C 34,4 C 4,0 km/h (1 Bft)
21/08/2012 13:40 34,8 C 44 % 1016,9 hPa 0,0 mm 0,0 km/h (0 Bft) SO 225 0 min 0 W/m 20,7 C 34,8 C 0,0 km/h (0 Bft)
21/08/2012 13:50 34,6 C 44 % 1016,8 hPa 0,0 mm 0,0 km/h (0 Bft) N 360 0 min 0 W/m 20,5 C 34,6 C 1,4 km/h (1 Bft)
21/08/2012 14:00 34,8 C 43 % 1016,8 hPa 0,0 mm 0,0 km/h (0 Bft) O-NO 292 0 min 0 W/m 20,3 C 34,8 C 4,0 km/h (1 Bft)
21/08/2012 14:10 34,9 C 43 % 1016,7 hPa 0,0 mm 1,1 km/h (1 Bft) O-NO 292 0 min 0 W/m 20,4 C 34,9 C 4,3 km/h (1 Bft)
21/08/2012 14:20 35,1 C 43 % 1016,6 hPa 0,0 mm 5,8 km/h (2 Bft) S-SO 202 0 min 0 W/m 20,6 C 35,1 C 9,4 km/h (2 Bft)
21/08/2012 14:30 34,9 C 43 % 1016,6 hPa 0,0 mm 4,7 km/h (1 Bft) O-SO 247 0 min 0 W/m 20,4 C 34,9 C 7,6 km/h (2 Bft)
21/08/2012 14:40 34,3 C 44 % 1016,6 hPa 0,0 mm 1,8 km/h (1 Bft) S-SO 202 0 min 0 W/m 20,3 C 34,3 C 7,9 km/h (2 Bft)
21/08/2012 14:50 33,6 C 45 % 1016,5 hPa 0,0 mm 0,0 km/h (0 Bft) NO 315 0 min 0 W/m 20,0 C 33,6 C 0,0 km/h (0 Bft)
21/08/2012 15:00 33,6 C 46 % 1016,4 hPa 0,0 mm 5,0 km/h (1 Bft) O 270 0 min 0 W/m 20,3 C 33,6 C 7,9 km/h (2 Bft)
21/08/2012 15:10 33,6 C 46 % 1016,4 hPa 0,0 mm 3,6 km/h (1 Bft) O-NO 292 0 min 0 W/m 20,3 C 33,6 C 3,6 km/h (1 Bft)
21/08/2012 15:20 33,7 C 46 % 1016,3 hPa 0,0 mm 0,7 km/h (0 Bft) O 270 0 min 0 W/m 20,4 C 33,7 C 3,6 km/h (1 Bft)
21/08/2012 15:30 33,3 C 46 % 1016,3 hPa 0,0 mm 6,8 km/h (2 Bft) O 270 0 min 0 W/m 20,1 C 33,3 C 9,4 km/h (2 Bft)
21/08/2012 15:40 32,6 C 47 % 1016,3 hPa 0,0 mm 0,0 km/h (0 Bft) O 270 0 min 0 W/m 19,8 C 32,6 C 2,9 km/h (1 Bft)
21/08/2012 15:50 32,3 C 48 % 1016,3 hPa 0,0 mm 0,0 km/h (0 Bft) O-NO 292 0 min 0 W/m 19,9 C 32,3 C 0,0 km/h (0 Bft)
21/08/2012 16:00 32,3 C 48 % 1016,2 hPa 0,0 mm 2,2 km/h (1 Bft) NO 315 0 min 0 W/m 19,9 C 32,3 C 4,3 km/h (1 Bft)
21/08/2012 16:10 32,4 C 49 % 1016,1 hPa 0,0 mm 9,4 km/h (2 Bft) NO 315 0 min 0 W/m 20,3 C 32,4 C 13,3 km/h (3 Bft)
21/08/2012 16:20 33,1 C 47 % 1016,0 hPa 0,0 mm 3,2 km/h (1 Bft) O 270 0 min 0 W/m 20,2 C 33,1 C 4,3 km/h (1 Bft)
21/08/2012 16:30 33,6 C 47 % 1015,9 hPa 0,0 mm 2,2 km/h (1 Bft) N 360 0 min 0 W/m 20,7 C 33,6 C 4,0 km/h (1 Bft)
21/08/2012 16:40 33,6 C 47 % 1015,9 hPa 0,0 mm 4,3 km/h (1 Bft) NO 315 0 min 0 W/m 20,7 C 33,6 C 7,2 km/h (2 Bft)
21/08/2012 16:50 33,6 C 47 % 1015,9 hPa 0,0 mm 1,1 km/h (1 Bft) NO 315 0 min 0 W/m 20,7 C 33,6 C 3,2 km/h (1 Bft)
21/08/2012 17:00 33,2 C 46 % 1015,9 hPa 0,0 mm 1,8 km/h (1 Bft) O 270 0 min 0 W/m 20,0 C 33,2 C 9,4 km/h (2 Bft)
21/08/2012 17:10 32,6 C 47 % 1015,9 hPa 0,0 mm 0,7 km/h (0 Bft) NO 315 0 min 0 W/m 19,8 C 32,6 C 0,7 km/h (0 Bft)
21/08/2012 17:20 32,2 C 47 % 1015,8 hPa 0,0 mm 0,4 km/h (0 Bft) NO 315 0 min 0 W/m 19,4 C 32,2 C 3,6 km/h (1 Bft)
21/08/2012 17:30 31,9 C 48 % 1015,8 hPa 0,0 mm 2,9 km/h (1 Bft) O-NO 292 0 min 0 W/m 19,5 C 31,9 C 2,9 km/h (1 Bft)
21/08/2012 17:40 32,2 C 48 % 1015,7 hPa 0,0 mm 3,2 km/h (1 Bft) O 270 0 min 0 W/m 19,8 C 32,2 C 8,6 km/h (2 Bft)
21/08/2012 17:50 32,6 C 47 % 1015,8 hPa 0,0 mm 1,4 km/h (1 Bft) NO 315 0 min 0 W/m 19,8 C 32,6 C 4,3 km/h (1 Bft)
21/08/2012 18:00 33,1 C 46 % 1015,8 hPa 0,0 mm 5,0 km/h (1 Bft) S-SO 202 0 min 0 W/m 19,9 C 33,1 C 10,4 km/h (2 Bft)
21/08/2012 18:10 32,9 C 45 % 1015,8 hPa 0,0 mm 5,0 km/h (1 Bft) O-SO 247 0 min 0 W/m 19,4 C 32,9 C 9,4 km/h (2 Bft)
21/08/2012 18:20 32,4 C 46 % 1015,8 hPa 0,0 mm 2,5 km/h (1 Bft) NO 315 0 min 0 W/m 19,3 C 32,4 C 6,5 km/h (2 Bft)
21/08/2012 18:30 32,1 C 48 % 1015,8 hPa 0,0 mm 0,0 km/h (0 Bft) O-NO 292 0 min 0 W/m 19,7 C 32,1 C 0,0 km/h (0 Bft)
21/08/2012 18:40 32,2 C 48 % 1015,7 hPa 0,0 mm 4,7 km/h (1 Bft) NO 315 0 min 0 W/m 19,8 C 32,2 C 4,7 km/h (1 Bft)
21/08/2012 18:50 32,3 C 48 % 1015,7 hPa 0,0 mm 3,6 km/h (1 Bft) NO 315 0 min 0 W/m 19,9 C 32,3 C 3,6 km/h (1 Bft)
21/08/2012 19:00 32,4 C 48 % 1015,6 hPa 0,0 mm 4,7 km/h (1 Bft) SO 225 0 min 0 W/m 19,9 C 32,4 C 4,7 km/h (1 Bft)
21/08/2012 19:10 32,5 C 48 % 1015,6 hPa 0,0 mm 2,2 km/h (1 Bft) O-SO 247 0 min 0 W/m 20,0 C 32,5 C 7,2 km/h (2 Bft)
21/08/2012 19:20 32,3 C 47 % 1015,5 hPa 0,0 mm 0,0 km/h (0 Bft) O 270 0 min 0 W/m 19,5 C 32,3 C 0,0 km/h (0 Bft)
21/08/2012 19:30 32,1 C 48 % 1015,6 hPa 0,0 mm 3,6 km/h (1 Bft) NO 315 0 min 0 W/m 19,7 C 32,1 C 11,5 km/h (2 Bft)
21/08/2012 19:40 31,7 C 48 % 1015,6 hPa 0,0 mm 1,1 km/h (1 Bft) O-NO 292 0 min 0 W/m 19,3 C 31,7 C 1,4 km/h (1 Bft)
21/08/2012 19:50 31,1 C 49 % 1015,7 hPa 0,0 mm 0,4 km/h (0 Bft) O-NO 292 0 min 0 W/m 19,1 C 31,1 C 0,4 km/h (0 Bft)
21/08/2012 20:00 30,5 C 50 % 1015,7 hPa 0,0 mm 1,4 km/h (1 Bft) NO 315 0 min 0 W/m 18,9 C 30,5 C 6,5 km/h (2 Bft)
21/08/2012 20:10 30,1 C 50 % 1015,8 hPa 0,0 mm 2,2 km/h (1 Bft) O-NO 292 0 min 0 W/m 18,5 C 30,1 C 4,0 km/h (1 Bft)
21/08/2012 20:20 29,8 C 51 % 1015,9 hPa 0,0 mm 0,7 km/h (0 Bft) O-NO 292 0 min 0 W/m 18,5 C 29,8 C 4,3 km/h (1 Bft)
21/08/2012 20:30 29,4 C 51 % 1016,0 hPa 0,0 mm 0,7 km/h (0 Bft) O-SO 247 0 min 0 W/m 18,2 C 29,4 C 3,6 km/h (1 Bft)
21/08/2012 20:40 28,9 C 52 % 1016,1 hPa 0,0 mm 1,1 km/h (1 Bft) NO 315 0 min 0 W/m 18,0 C 28,9 C 4,3 km/h (1 Bft)
21/08/2012 20:50 28,6 C 53 % 1016,2 hPa 0,0 mm 2,2 km/h (1 Bft) N-NO 337 0 min 0 W/m 18,1 C 28,6 C 3,6 km/h (1 Bft)
21/08/2012 21:00 28,3 C 53 % 1016,4 hPa 0,0 mm 6,8 km/h (2 Bft) N-NO 337 0 min 0 W/m 17,8 C 28,3 C 10,8 km/h (2 Bft)
21/08/2012 21:10 27,9 C 54 % 1016,6 hPa 0,0 mm 3,2 km/h (1 Bft) N-NO 337 0 min 0 W/m 17,7 C 27,9 C 15,1 km/h (3 Bft)
21/08/2012 21:20 27,5 C 54 % 1016,8 hPa 0,0 mm 5,8 km/h (2 Bft) N-NO 337 0 min 0 W/m 17,3 C 27,5 C 11,5 km/h (2 Bft)
21/08/2012 21:30 27,2 C 54 % 1017,1 hPa 0,0 mm 5,4 km/h (2 Bft) NO 315 0 min 0 W/m 17,1 C 27,2 C 9,0 km/h (2 Bft)
21/08/2012 21:40 26,8 C 55 % 1017,3 hPa 0,0 mm 1,4 km/h (1 Bft) NO 315 0 min 0 W/m 17,0 C 26,8 C 1,4 km/h (1 Bft)
21/08/2012 21:50 26,5 C 56 % 1017,4 hPa 0,0 mm 0,0 km/h (0 Bft) NO 315 0 min 0 W/m 17,0 C 26,5 C 0,0 km/h (0 Bft)
21/08/2012 22:00 26,2 C 57 % 1017,6 hPa 0,0 mm 2,5 km/h (1 Bft) N-NE 22 0 min 0 W/m 17,0 C 26,2 C 6,1 km/h (2 Bft)
21/08/2012 22:10 25,8 C 58 % 1017,7 hPa 0,0 mm 0,0 km/h (0 Bft) N-NO 337 0 min 0 W/m 16,9 C 25,8 C 0,0 km/h (0 Bft)
21/08/2012 22:20 25,4 C 59 % 1017,9 hPa 0,0 mm 0,0 km/h (0 Bft) N-NO 337 0 min 0 W/m 16,8 C 25,4 C 0,0 km/h (0 Bft)
21/08/2012 22:30 24,9 C 59 % 1018,1 hPa 0,0 mm 0,0 km/h (0 Bft) N-NO 337 0 min 0 W/m 16,3 C 24,9 C 0,0 km/h (0 Bft)
21/08/2012 22:40 24,6 C 60 % 1018,2 hPa 0,0 mm 0,0 km/h (0 Bft) N-NO 337 0 min 0 W/m 16,3 C 24,6 C 0,0 km/h (0 Bft)
21/08/2012 22:50 24,1 C 61 % 1018,2 hPa 0,0 mm 0,0 km/h (0 Bft) N-NO 337 0 min 0 W/m 16,1 C 24,1 C 0,0 km/h (0 Bft)
21/08/2012 23:00 23,6 C 62 % 1018,4 hPa 0,0 mm 0,0 km/h (0 Bft) N-NO 337 0 min 0 W/m 15,9 C 23,6 C 0,0 km/h (0 Bft)
21/08/2012 23:10 23,2 C 63 % 1018,4 hPa 0,0 mm 0,4 km/h (0 Bft) NO 315 0 min 0 W/m 15,8 C 23,2 C 0,4 km/h (0 Bft)
21/08/2012 23:20 22,8 C 65 % 1018,6 hPa 0,0 mm 0,0 km/h (0 Bft) NO 315 0 min 0 W/m 15,9 C 22,8 C 0,0 km/h (0 Bft)
21/08/2012 23:30 22,5 C 66 % 1018,7 hPa 0,0 mm 0,0 km/h (0 Bft) NO 315 0 min 0 W/m 15,8 C 22,5 C 0,0 km/h (0 Bft)
21/08/2012 23:40 22,2 C 66 % 1018,7 hPa 0,0 mm 0,0 km/h (0 Bft) NO 315 0 min 0 W/m 15,5 C 22,2 C 0,0 km/h (0 Bft)
21/08/2012 23:50 21,9 C 67 % 1018,9 hPa 0,0 mm 0,0 km/h (0 Bft) NO 315 0 min 0 W/m 15,5 C 21,9 C 0,0 km/h (0 Bft)
_ Min-Heure 07:40 14:30 19:20 - 23:50 - - - - 23:50 07:40 23:50
Minimum _ 18,6 C 43 % 1015,5 hPa - 0,0 km/h (0 Bft) - - - - 15,5 C 18,6 C 0,0 km/h (0 Bft)
_ Max-Heure 14:20 08:30 00:00 23:50 16:10 - - 23:50 23:50 11:40 14:20 21:10
Maximum _ 35,1 C 86 % 1019,8 hPa 0,0 mm 9,4 km/h
NO (2 Bft)
- - 0 min 0 W/m 22,3 C 35,1 C 15,1 km/h
N-NO (3 Bft)
Moyenne _ 26,7 C 63 % 1017,4 hPa #0,0 mm 1,0 km/h (0 Bft) NE - #0 min. 0 W/m 18,4 C 26,7 C 2,3 km/h (1 Bft)
Saint Bonnet de Bellac- Haute Vienne - France